Tracking 34138 objects as of 15-May-2026
HD Live streaming from Space Station
objects crossing your sky now

STARLINK-36902

Track STARLINK-36902 now!
10-day predictions
STARLINK-36902 is classified as:


NORAD ID: 68043
Int'l Code: 2026-041D
Perigee: 481.5 km
Apogee: 483.2 km
Inclination: 53.2 °
Period: 94.1 minutes
Semi major axis: 6853 km
RCS: Unknown
Launch date: March 2, 2026
Source: United States (US)
Launch site: AIR FORCE EASTERN TEST RANGE (AFETR)
Your satellite tracking list
Your tracking list is empty




NASA's NSSDC Master Catalog

Two Line Element Set (TLE):
1 68043U 26041D   26135.28854187  .00005254  00000-0  18938-3 0  9992
2 68043  53.1589 100.6135 0001286  87.6203 272.4945 15.30201240 11589
Source of the keplerian elements: AFSPC